STARLINK-2051

decayed
NORAD ID: 47661 Int'l Des: 2021-012 Owner: SPXS Country: US Constellation: starlink
LEOCIRCULAR
Group

About STARLINK-2051

Description loading...

Altitude History

Altitude vs Time

uPlot chart will show altitude changes over time

Two-Line Element Set

1 47661U 21012AT 25031.98719416 .22395037 12487-4 44819-3 0 9992
2 47661 53.0290 25.2619 0005099 220.1207 244.9915 16.46855186219373
Epoch: Jan 31, 2025 • Age: 5526 hours

Current Status

Position data unavailable
Launch Date Feb 16, 2021
Age 4.5 years
Decay Date Feb 1, 2025
Type internet

Technical Details

Classification Payload
Mass 260.00 kg
Dry Mass 248.00 kg
Total Mass 260.00 kg
Length 0.20 m
Diameter 2.80 m
Span 9.00 m
Shape Box + pan
Manufacturer SPXS
Bus Type Starlink
Phase Status Reentered
Owner/State SPXS/US

Large Constellations

Loading constellations...